De Soto, IL

11:26 AM CST on January 20, 2017 (GMT -0600)
Southern Illinois

Weather History for KMDH - January, 2013

Change the Weather History Date:

Tuesday, January 15, 2013

  Actual Average Record
Temperature  
Mean Temperature 26 °F -  
Max Temperature 30 °F 37 °F 69 °F (1949)
Min Temperature 21 °F 18 °F -11 °F (1979)
Degree Days  
Heating Degree Days 40    
Moisture  
Dew Point 20 °F    
Average Humidity 73    
Maximum Humidity 82    
Minimum Humidity 66    
Precipitation  
Precipitation 0.00 in - - ()
Sea Level Pressure  
Sea Level Pressure 30.29 in    
Wind  
Wind Speed 6 mph (North)    
Max Wind Speed 12 mph    
Max Gust Speed -    
Visibility 10 miles    
Events      
Averages and records for this station are not official NWS values.
T = Trace of Precipitation, MM = Missing Value Source: NWS Daily Summary

Daily Weather History Graph

Daily Weather History Graph

Search for Another Location

Airport or City:

Trip Planner

Search our weather history database for the weather conditions in past years. The results will help you decide how hot, cold, wet, or windy it might be!

Date:

Astronomy

Jan. 15, 2013 Rise Set
Actual Time 7:11 AM CST 5:02 PM CST
Civil Twilight 6:42 AM CST 5:30 PM CST
Nautical Twilight 6:10 AM CST 6:03 PM CST
Astronomical Twilight 5:38 AM CST 6:34 PM CST
Moon 9:22 AM CST (1/15) 9:45 PM CST (1/15)
Length of Visible Light 10h 48m
Length of Day
9h 51m
Waxing Crescent, 19% of the Moon is Illuminated
Jan 15
Waxing Crescent
Jan 18
First Quarter
Jan 26
Full
Feb 3
Last Quarter
Feb 10
New

Hourly Weather History & Observations

Time (CST) Temp. Windchill Dew Point Humidity Pressure Visibility Wind Dir Wind Speed Gust Speed Precip Events Conditions
12:52 AM 24.1 °F 17.0 °F 18.0 °F 77% 30.40 in 10.0 mi North 5.8 mph - N/A   Clear
1:52 AM 23.0 °F 14.7 °F 17.1 °F 78% 30.39 in 10.0 mi North 6.9 mph - N/A   Clear
2:52 AM 23.0 °F 15.8 °F 17.1 °F 78% 30.39 in 10.0 mi North 5.8 mph - N/A   Clear
4:52 AM 23.0 °F 15.8 °F 17.1 °F 78% 30.37 in 10.0 mi NNE 5.8 mph - N/A   Clear
5:52 AM 21.9 °F 14.5 °F 17.1 °F 82% 30.35 in 9.0 mi NNE 5.8 mph - N/A   Clear
6:52 AM 23.0 °F 17.0 °F 17.1 °F 78% 30.36 in 9.0 mi North 4.6 mph - N/A   Clear
7:52 AM 23.0 °F 15.8 °F 17.1 °F 78% 30.37 in 9.0 mi NNE 5.8 mph - N/A   Mostly Cloudy
8:52 AM 25.0 °F 16.3 °F 18.0 °F 75% 30.36 in 8.0 mi NNE 8.1 mph - N/A   Clear
9:52 AM 27.0 °F 21.6 °F 19.0 °F 72% 30.36 in 9.0 mi ENE 4.6 mph - N/A   Clear
10:52 AM 28.0 °F 21.7 °F 19.0 °F 69% 30.33 in 10.0 mi East 5.8 mph - N/A   Mostly Cloudy
11:52 AM 28.0 °F 18.1 °F 19.9 °F 72% 30.30 in 10.0 mi North 11.5 mph - N/A   Clear
12:52 PM 28.9 °F 22.8 °F 19.9 °F 69% 30.30 in 10.0 mi North 5.8 mph - N/A   Overcast
1:52 PM 28.9 °F 20.4 °F 19.9 °F 69% 30.25 in 10.0 mi North 9.2 mph - N/A   Overcast
2:52 PM 28.9 °F 21.9 °F 19.9 °F 69% 30.25 in 10.0 mi NNE 6.9 mph - N/A   Overcast
3:52 PM 30.0 °F 24.1 °F 19.9 °F 66% 30.24 in 10.0 mi NNE 5.8 mph - N/A   Overcast
4:52 PM 30.0 °F 23.2 °F 21.0 °F 69% 30.23 in 10.0 mi North 6.9 mph - N/A   Clear
5:52 PM 30.0 °F 25.2 °F 21.0 °F 69% 30.21 in 10.0 mi NNE 4.6 mph - N/A   Overcast
6:52 PM 30.0 °F 23.2 °F 21.0 °F 69% 30.22 in 10.0 mi North 6.9 mph - N/A   Overcast
7:52 PM 30.0 °F 23.2 °F 21.0 °F 69% 30.21 in 10.0 mi North 6.9 mph - N/A   Overcast
8:52 PM 30.0 °F 25.2 °F 21.9 °F 72% 30.19 in 10.0 mi North 4.6 mph - N/A   Overcast
9:52 PM 30.0 °F 22.4 °F 21.9 °F 72% 30.17 in 10.0 mi North 8.1 mph - N/A   Overcast
10:52 PM 30.0 °F 24.1 °F 21.9 °F 72% 30.17 in 10.0 mi North 5.8 mph - N/A   Overcast
11:52 PM 30.0 °F 24.1 °F 23.0 °F 75% 30.14 in 10.0 mi North 5.8 mph - N/A   Overcast